Location: Mannheim
(49.4880°N, 8.4650°E)
Time: 03:35:55
(UTC+02:00)

ISS - Pass Details

Date: 19 March 2023
Orbit: 413 x 421 km, 51.6° (Epoch: 29 March)

Event Time Altitude Azimuth Distance (km) Brightness Sun altitude
Rises 19:23:49 0° 227° (SW) 2,350 0.6 -8.4°
Reaches altitude 10° 19:25:58 10° 220° (SW) 1,488 -0.5 -8.7°
Maximum altitude 19:29:07 39° 149° (SSE) 634 -3.2 -9.2°
Enters shadow 19:31:48 13° 82° (E) 1,313 -1.8 -9.7°
